Miscellaneous Local Product
Issued by NWS North Platte, NE

Home | Current Version | Previous Version | Text Only | Print | Product List | Glossary On
Versions: 1 2 3 4 5 6 7 8 9 10 11 12 13 14 15 16 17 18 19 20 21 22 23 24 25 26 27 28 29 30 31 32 33 34 35 36 37 38 39 40 41 42 43 44 45 46 47 48 49 50
000
AXUS43 KLBF 292010
MISLBF


WESTERN AND NORTH CENTRAL NEBRASKA HOURLY WEATHER ROUNDUP
NATIONAL WEATHER SERVICE NORTH PLATTE NE
300 PM CDT TUE JUL 29 2014

***STATIONS NOT REPORTING VARIABLES SUCH AS SKY/WEATHER OR
PRESSURE ARE PROVIDED BY THE NEBRASKA DEPARTMENT OF
ROADS...RAWS...AND APRS NETWORKS...AND ARE NOT UNDER
NATIONAL WEATHER SERVICE QUALITY CONTROL***

...OBSERVATIONS IN AND NEAR THE EASTERN PANHANDLE OF NEBRASKA...

CITY           SKY/WX    TMP DP  RH WIND       PRES   REMARKS
PINE RIDGE     LGT RAIN  67  61  81 NE5       30.26S
CHADRON        PTSUNNY   72  59  63 NE21G26   30.24F
ALLIANCE       PTSUNNY   81  57  43 E7        30.20F
SIDNEY         MOSUNNY   83  57  41 E10       30.20F
WHITECLAY        N/A     69  58  67 N6          N/A
RUSHVILLE        N/A     76  52  42 E21         N/A
GORDON           N/A     74  58  56 NE12        N/A
CRESCENT LAKE    N/A     82  61  49 SE6G14      N/A
LISCO            N/A     86  56  35 E9          N/A
BIG SPRINGS      N/A     81  63  54 SE5         N/A
$$

...OBSERVATIONS IN NORTH CENTRAL NEBRASKA...

CITY           SKY/WX    TMP DP  RH WIND       PRES   REMARKS
VALENTINE      CLOUDY    77  52  41 VRB3      30.22R
THEDFORD       CLOUDY    77  58  52 SE5       30.22S
AINSWORTH      CLOUDY    74  53  47 NE5       30.22S
O`NEILL        CLOUDY    78  48  34 W6        30.21S
ORD            MOSUNNY   77  57  50 SE6       30.19F
BROKEN BOW     PTSUNNY   78  59  51 SE5       30.20F
BROWNLEE         N/A     80  53  39 CALM        N/A
SPRINGVIEW       N/A     79  55  43 CALM        N/A
DUNNING          N/A     76  58  54 N7          N/A
ROSE             N/A     79  60  51 CALM        N/A
NEWPORT          N/A     79  56  45 CALM        N/A
SARGENT          N/A     78  58  49 CALM        N/A
COMSTOCK         N/A     84  62  47 CALM        N/A
CHAMBERS         N/A     82  55  38 CALM        N/A
EWING            N/A     76  56  50 CALM        N/A
$$

...OBSERVATIONS IN SOUTHWEST NEBRASKA AND FAR NORTHEAST COLORADO...

CITY           SKY/WX    TMP DP  RH WIND       PRES   REMARKS
WRAY             N/A     89  55  30 SE16G24   30.13F
HOLYOKE        FAIR      84  61  45 E14G20    30.17F
IMPERIAL       MOSUNNY   83  59  44 SE12      30.16F
OGALLALA       MOSUNNY   80  60  49 E8        30.17F
NORTH PLATTE   MOSUNNY   80  59  48 E12       30.17F
MCCOOK         MOSUNNY   84  59  42 E13G18    30.15F
LEXINGTON      SUNNY     79  59  50 S5G10     30.19F
PAXTON           N/A     81  65  57 SE5         N/A
SUTHERLAND       N/A     83  65  55 E9          N/A
BRADY            N/A     78  60  53 CALM        N/A
CALLAWAY         N/A     78  68  72 SE7         N/A
$$

...SOME WEATHER OBSERVATIONS FROM AROUND THE REGION...

CITY           SKY/WX    TMP DP  RH WIND       PRES   REMARKS
DENVER         PTSUNNY   76  54  46 SE28G35   30.20R
LARAMIE        CLOUDY    64  54  69 SE17      30.32F
CHEYENNE       LGT RAIN  64  57  78 N9        30.29S
SCOTTSBLUFF    MOSUNNY   81  62  52 E8        30.20F
RAPID CITY     CLOUDY    69  59  70 SE8       30.26F
PIERRE         SUNNY     81  51  35 NE8       30.17F
WINNER         FAIR      81  47  30 N6        30.20S
SIOUX FALLS    PTSUNNY   75  53  46 N8        30.19S
OMAHA          PTSUNNY   79  52  38 N6        30.17F
GRAND ISLAND   PTSUNNY   76  55  48 NE5       30.20F
KANSAS CITY    PTSUNNY   79  57  46 N8        30.15F
WICHITA        PTSUNNY   86  60  41 E9        30.12F
HAYS           SUNNY     88  57  35 S10G16    30.13F
LIBERAL        CLOUDY    68  61  77 S10       30.20F
GOODLAND       MOSUNNY   86  60  41 SE14G22   30.15F
$$



USA.gov is the U.S. government's official web portal to all federal, state and local government web resources and services.